EST,Max TemperatureF,Mean TemperatureF,Min TemperatureF,Max Dew PointF,MeanDew PointF,Min DewpointF,Max Humidity, Mean Humidity, Min Humidity, Max Sea Level PressureIn, Mean Sea Level PressureIn, Min Sea Level PressureIn, Max VisibilityMiles, Mean VisibilityMiles, Min VisibilityMiles, Max Wind SpeedMPH, Mean Wind SpeedMPH, Max Gust SpeedMPH,PrecipitationIn, CloudCover, Events, WindDirDegrees
2013-2-1,21,15,9,12,4,0,76,64,56,30.36,30.26,29.94,10,10,4,21,15,29,0.00,5,Snow,253
2013-2-2,29,20,10,25,17,4,84,78,68,30.32,30.10,29.98,10,7,1,17,7,22,0.00,7,Snow,211
2013-2-3,28,25,22,23,17,11,86,75,60,30.09,29.97,29.88,10,8,2,18,7,25,0.00,8,Snow,258
2013-2-4,31,22,12,28,19,9,88,80,58,30.10,29.95,29.83,10,6,1,12,5,,0.00,7,Snow,178
2013-2-5,35,32,28,28,25,22,89,79,68,29.98,29.89,29.85,10,5,1,12,3,18,0.00,8,,291
2013-2-6,35,30,23,28,23,18,78,68,51,30.29,30.20,29.99,10,8,5,9,5,,0.00,5,,321
2013-2-7,50,37,24,32,27,18,81,66,47,30.25,30.07,29.83,10,9,7,9,4,,0.00,2,,80
2013-2-8,45,38,30,38,28,18,86,71,61,30.30,30.01,29.77,10,9,2,23,13,29,0.00,8,Rain,301
2013-2-9,37,30,22,20,18,16,81,64,43,30.43,30.35,30.26,10,10,10,13,5,,0.00,1,,37
2013-2-10,50,38,25,40,26,17,74,59,35,30.27,30.07,29.83,10,10,10,20,6,28,0.00,5,Rain,126
2013-2-11,54,47,40,45,34,26,86,61,36,30.01,29.85,29.75,10,10,7,34,18,45,0.00,5,Rain,234
2013-2-12,48,40,32,27,25,21,74,58,34,30.12,30.02,29.91,10,10,10,15,9,20,0.00,4,,250
2013-2-13,34,28,21,29,25,18,89,81,70,29.91,29.82,29.74,10,6,0,9,5,,0.00,5,Snow,308
2013-2-14,48,34,21,37,30,18,90,80,63,29.97,29.89,29.82,10,8,0,18,8,23,0.00,6,Fog-Thunderstorm,207
2013-2-15,40,34,28,31,27,23,90,79,65,30.12,30.04,29.97,10,8,0,15,6,21,0.00,6,Snow,266
2013-2-16,30,24,18,23,17,8,85,72,60,30.11,30.05,29.98,10,9,1,21,8,29,0.00,4,Snow,287
2013-2-17,27,20,14,12,8,4,73,60,38,30.24,30.17,30.06,10,10,10,14,8,16,0.00,3,,298
2013-2-18,52,35,18,31,19,9,68,50,34,30.24,30.05,29.77,10,10,10,34,9,43,0.00,1,Rain,151
2013-2-19,47,36,25,38,27,14,90,72,59,30.06,29.84,29.66,10,9,1,32,18,39,0.00,8,Rain-Snow,244
2013-2-20,25,22,19,17,11,7,71,60,48,30.28,30.20,30.06,10,10,3,21,14,26,0.00,8,Snow,278
2013-2-21,30,26,23,18,15,12,72,62,53,30.35,30.27,30.19,10,10,10,15,8,22,0.00,6,Snow,23
2013-2-22,43,36,28,37,30,18,92,79,63,30.18,29.98,29.92,10,8,2,17,9,26,0.00,8,Snow,171
2013-2-23,42,38,32,32,28,24,87,69,48,29.98,29.93,29.90,10,10,7,14,4,20,0.00,5,,271
2013-2-24,36,32,28,24,21,18,78,65,48,30.16,30.06,29.92,10,10,10,15,6,18,0.00,6,,290
2013-2-25,46,34,22,25,22,18,86,62,37,30.20,30.11,29.98,10,9,5,15,4,17,0.00,1,,69
2013-2-26,44,39,34,40,32,23,88,75,55,29.96,29.65,29.45,10,9,2,18,11,24,0.00,6,Rain-Snow,95
2013-2-27,44,38,33,39,34,31,89,82,75,29.70,29.62,29.49,10,9,4,24,13,30,0.00,8,Rain-Snow,221
2013-2-28,39,36,32,33,31,28,88,82,74,29.90,29.74,29.65,10,8,2,17,12,23,0.00,8,Rain-Snow,266